Home > Weather > Wailuku > Past weeks

Flag for U.S.A. Weather for the Past 2 Weeks in Wailuku, Hawaii, U.S.A.

Now
80 °F

Passing clouds.


Feels Like: 82 °F
Forecast: 66 / 83 °F
Wind: 9 mph from Northeast

Location: Kahului Airport

Current Time: Feb 13, 2016 at 6:37:44 PM

Latest Report: Feb 13, 2016 at 5:54 PM


Visibility: 10 mi

Pressure: 29.99 "Hg

Humidity: 56%

Dew point: 63 °F

Location of WailukuLocation

Historic Weather in Wailuku — Graph

°F

Wailuku Temperature Yesterday

Maximum temperature yesterday: 84 °F (at 12:54 PM)
Minimum temperature yesterday: 61 °F (at 5:54 AM)
Average temperature yesterday: 73 °F

High & Low Weather Summary for the Past Weeks

 TemperatureHumidityPressure
High88 °F (Feb 13, 1:54 PM)94% (Feb 4, 6:54 AM)30.15 "Hg (Feb 4, 6:54 AM)
Low55 °F (Feb 9, 2:54 AM)41% (Feb 8, 8:54 AM)29.90 "Hg (Feb 6, 3:54 PM)
Average72 °F71%30.05 "Hg
* Reported Jan 29 4:54 PM — Feb 13 4:54 PM, Wailuku, Weather by CustomWeather, © 2016

Note: Actual official high and low records may vary slightly from our data, if they occured in-between our weather recording intervals... More about our weather records

Advertising

Wailuku Weather History for the Previous 24 Hours

 ConditionsComfort  
Time TempWeatherWind HumidityBarometerVisibility
4:54 PM
Sat, Feb 13
84 °FSunny.9 mph51%29.96 "Hg10 mi
3:54 PM86 °FSunny.14 mph51%29.96 "Hg10 mi
2:54 PM86 °FScattered clouds.13 mph51%29.96 "Hg10 mi
1:54 PM88 °FScattered clouds.18 mph46%29.98 "Hg10 mi
12:54 PM87 °FScattered clouds.8 mph43%30.02 "Hg10 mi
11:54 AM85 °FScattered clouds.3 mph50%30.06 "Hg10 mi
10:54 AM82 °FPassing clouds.5 mph55%30.08 "Hg10 mi
9:54 AM80 °FPassing clouds.7 mph60%30.09 "Hg10 mi
8:54 AM75 °FPassing clouds.No wind71%30.09 "Hg10 mi
7:54 AM67 °FPassing clouds.5 mph87%30.09 "Hg10 mi
6:54 AM64 °FPassing clouds.9 mph90%30.07 "Hg10 mi
5:54 AM63 °FClear.3 mph90%30.06 "Hg10 mi
4:54 AM66 °FClear.3 mph87%30.04 "Hg10 mi
3:54 AM64 °FPassing clouds.5 mph90%30.03 "Hg10 mi
2:54 AM66 °FPassing clouds.6 mph84%30.05 "Hg10 mi
1:54 AM65 °FClear.5 mph87%30.06 "Hg10 mi
12:54 AM66 °FClear.No wind87%30.07 "Hg10 mi
11:54 PM
Fri, Feb 12
67 °FClear.No wind85%30.08 "Hg10 mi
10:54 PM69 °FPassing clouds.3 mph84%30.09 "Hg10 mi
9:54 PM72 °FPassing clouds.5 mph81%30.08 "Hg10 mi
8:54 PM73 °FPassing clouds.6 mph79%30.08 "Hg10 mi
7:54 PM74 °FPassing clouds.6 mph74%30.06 "Hg10 mi
6:54 PM76 °FPassing clouds.6 mph72%30.02 "Hg10 mi
Weather by CustomWeather, © 2016

See weather overviewHow to use our weather pages